Location: Bukit Setapoh
(2.2500°N, 113.8000°E)
Time: 00:45:37
(UTC+00:00)

Meteor 1-4 Rocket - Pass Details

Date: 25 July 2021
Orbit: 447 x 498 km, 81.2° (Epoch: 22 September)

Event Time Altitude Azimuth Distance (km) Brightness Sun altitude
Rises 11:48:33 0° 341° (NNW) 2,544 6.8 -17.3°
Reaches altitude 10° 11:50:44 10° 333° (NNW) 1,673 6.0 -17.8°
Maximum altitude 11:54:08 36° 265° (W) 791 4.1 -18.6°
Drops below altitude 10° 11:57:35 10° 197° (SSW) 1,696 5.3 -19.4°
Enters shadow 11:58:53 - 191° (S) 2,208 5.8 -19.7°
